Find Starlink 32489

NORAD ID: 61893 Int'l Des: 2024-204 Owner: SPXS Country: US Constellation: starlink operational
LEOCIRCULAR

当前视图

正在加载3D地球...

About Starlink 32489

Starlink 32489 (NORAD 61893) is a starlink constellation satellite (v2 mini) launched Nov 9, 2024 by SPXS of US. It operates in LEO, CIRCULAR orbit with a mass of 730.00 kg.

即将过境

Passes for default location (London). Set your location on the main map for personalized predictions.

高度历史

Loading altitude history...

两行轨道根数

1 61893U 24204V 26265.29377372 -.00000286 00000-0 26690-5 0 9995
2 61893 53.1610 289.2576 0001134 98.2842 261.8289 15.34382740105252
Epoch: Sep 22, 2026 • Age: 21 hours

当前状态

高度 469.3 km
远地点 / 近地点 N/A
速度 7.63 km/s
星下点 -22.20°S, 56.65°E
发射日期 Nov 9, 2024
运行时间 1.8 years
类型 internet

技术详情

分类 Payload
质量 730.00 kg
干质量 700.00 kg
长度 0.30 m
跨度 29.00 m
形状 ? Box + pan
制造商 SPXS
平台类型 Starlink V2M
阶段状态 In Orbit
所有者/国家 SPXS/US

Most Searched